Weather Service Report


453 
ASUS41 KPHI 191310
RWRPHI

REGIONAL WEATHER ROUNDUP
NATIONAL WEATHER SERVICE MOUNT HOLLY NJ
900 AM EDT FRI SEP 19 2014

NOTE:  "FAIR" INDICATES FEW OR NO CLOUDS BELOW 12,000 FEET WITH NO
SIGNIFICANT WEATHER AND/OR OBSTRUCTIONS TO VISIBILITY.

 * = STATION DOES NOT REPORT PRECIPITATION (E.G. RAIN, SNOW, ETC.) 
        OR FOG.

NJZ015>026-191400-
SOUTHERN NEW JERSEY
  
CITY           SKY/WX    TMP DP  RH WIND       PRES   REMARKS
POMONA         CLOUDY    62  57  83 NE8       30.25R                  
RIO GRANDE*    SUNNY     63  55  77 NE9       30.24R                  
MILLVILLE      SUNNY     62  54  74 NE13      30.25R                  
WRIGHTSTOWN    MOSUNNY   58  53  80 NE14      30.26R                  
MOUNT HOLLY    SUNNY     59  50  72 NE6       30.28R                  
TRENTON        CLOUDY    56  48  74 NE10      30.29R                  

$$
NJZ001>014-191400-
NORTHERN NEW JERSEY
  
CITY           SKY/WX    TMP DP  RH WIND       PRES   REMARKS
SUSSEX         CLOUDY    51  40  65 N12       30.34R                  
ANDOVER*         N/A     50  43  77 VRB5      30.33R                  
MORRISTOWN     MOSUNNY   54  48  82 NE8       30.32R                  
NEWARK         MOSUNNY   57  39  51 NE16      30.31R                  
TETERBORO      SUNNY     57  35  43 NE12G18   30.31R                  
CALDWELL       MOSUNNY   54  44  69 NE10      30.33R                  
SOMERVILLE     PTSUNNY   56  46  69 NE8       30.30R                  
ALLAIRE*       CLOUDY    57  45  62 NE12G20   30.29R                  
TOMS RIVER*    CLOUDY    61  52  72 NE13G18   30.28R                  

$$
PAZ043-044-047-054-055-060>062-066>071-191400-
EASTERN PENNSYLVANIA
  
CITY           SKY/WX    TMP DP  RH WIND       PRES   REMARKS
PHILADELPHIA   MOSUNNY   61  50  67 NE13      30.28R                  
NORTH PHILA    SUNNY     60  48  64 NE15      30.30R                  
BLUE BELL      SUNNY     59  50  72 NE3       30.28R                  
DOYLESTOWN     SUNNY     56  48  74 NE8       30.29R                  
QUAKERTOWN*    SUNNY     55  45  67 NE8       30.31R                  
POTTSTOWN      SUNNY     56  47  71 NE9       30.31R                  
LANCASTER      SUNNY     56  48  74 NE10      30.29R                  
COATESVILLE    SUNNY     55  48  76 NE5       30.29R                  
READING        SUNNY     57  47  69 NE9       30.29R                  
ALLENTOWN      SUNNY     55  47  74 E9        30.31R                  
MOUNT POCONO   CLOUDY    46  43  89 NE8       30.30R                  
HAZLETON       SUNNY     50  43  76 N3        30.32S                  
WILKES BARRE   SUNNY     50  41  71 CALM      30.31R                  

$$
DEZALL-MDZ008-012-015-019-020-191400-
DELAWARE AND EASTERN MARYLAND
  
CITY           SKY/WX    TMP DP  RH WIND       PRES   REMARKS
WILMINGTON     SUNNY     60  51  72 NE12      30.28R                  
DOVER          SUNNY     61  56  83 N13       30.23R                  
GEORGETOWN     SUNNY     66  59  78 NE15      30.23R                  
EASTON         MOSUNNY   61  59  94 NE7       30.27R                  
PATUXENT       PTSUNNY   65  58  78 VRB5      30.22R                  
OCEAN CITY     SUNNY     68  61  78 N6        30.21R                  
WALLOPS ISLAND SUNNY     67  59  75 N6        30.21R                  
CAMBRIDGE      SUNNY     61  55  82 NE6       30.23R                  
SALISBURY      SUNNY     67  59  75 N5        30.22R                  

$$
PAZ001-021-NYZ056-072-MDZ011-DCZ001-191400-
OTHER NEARBY LOCATIONS
  
CITY           SKY/WX    TMP DP  RH WIND       PRES   REMARKS
HARRISBURG     MOSUNNY   58  48  69 E6        30.29R                  
STATE COLLEGE  PTSUNNY   46  46 100 NE9       30.30R FOG              
WILLIAMSPORT   SUNNY     52  44  74 CALM      30.31R                  
BINGHAMTON     SUNNY     43  39  86 E3        30.32R                  
NEW YORK CITY  SUNNY     56  37  49 E13       30.34R                  
BALTIMORE      MOSUNNY   61  50  67 NE12      30.25R                  
WASHINGTON DC  PTSUNNY   63  52  67 NE10      30.26R                  

$$

Return to Home page


Western Regional Climate Center, wrcc@dri.edu